This demonstration page uses our WeatherBlox Daily Observations layout. Learn more.

Left ArrowRight Arrow

Hourly Observations for April 11, 2017

Temp ( °F °C ) Dew Point ( °F °C ) Humidity (%) Winds ( mph kmh ) Pressure ( in mb ) Visibility ( mi km ) Precip ( " mm )
12:15 am 00:15 Clear 68 20 46 8 46 46 S 6 9 30.12 1020 10 16 N/A
12:35 am 00:35 Clear 66 19 46 8 49 49 S 6 9 30.12 1020 10 16 N/A
12:55 am 00:55 Clear 64 18 48 9 56 56 SSW 7 11 30.12 1020 10 16 N/A
1:15 am 01:15 Clear 64 18 48 9 56 56 SSW 7 11 30.12 1020 10 16 N/A
1:35 am 01:35 Clear 64 18 48 9 56 56 SSW 7 11 30.12 1020 10 16 N/A
1:55 am 01:55 Clear 63 17 48 9 59 59 SSW 7 11 30.12 1020 10 16 N/A
2:15 am 02:15 Clear 63 17 48 9 59 59 SSW 6 9 30.12 1020 10 16 N/A
2:35 am 02:35 Clear 63 17 48 9 59 59 SSW 5 7 30.12 1020 10 16 N/A
2:55 am 02:55 Clear 63 17 48 9 59 59 SSW 3 6 30.12 1020 10 16 N/A
3:15 am 03:15 Clear 63 17 48 9 59 59 S 5 7 30.12 1020 10 16 N/A
3:35 am 03:35 Clear 61 16 48 9 63 63 SSW 3 6 30.12 1020 10 16 N/A
3:55 am 03:55 Clear 61 16 48 9 63 63 N N/A 30.12 1020 10 16 N/A
4:15 am 04:15 Clear 57 14 48 9 72 72 N N/A 30.12 1020 10 16 N/A
4:35 am 04:35 Clear 59 15 48 9 68 68 SE 3 6 30.12 1020 10 16 N/A
4:55 am 04:55 Clear 55 13 48 9 77 77 SSE 3 6 30.12 1020 10 16 N/A
5:15 am 05:15 Clear 52 11 48 9 88 88 S 3 6 30.12 1020 10 16 N/A
5:35 am 05:35 Clear 54 12 48 9 82 82 N N/A 30.12 1020 10 16 N/A
5:55 am 05:55 Clear 52 11 48 9 88 88 N N/A 30.12 1020 10 16 N/A
6:15 am 06:15 Clear 52 11 48 9 88 88 N N/A 30.15 1021 10 16 N/A
6:35 am 06:35 Clear 52 11 48 9 88 88 N N/A 30.15 1021 10 16 N/A
6:55 am 06:55 Sunny 52 11 48 9 88 88 N N/A 30.15 1021 10 16 N/A
7:15 am 07:15 Sunny 54 12 48 9 82 82 N N/A 30.18 1022 10 16 N/A
7:35 am 07:35 Sunny 54 12 48 9 82 82 N N/A 30.18 1022 10 16 N/A
7:55 am 07:55 Sunny 55 13 52 11 88 88 N N/A 30.18 1022 10 16 N/A
8:15 am 08:15 Sunny 59 15 52 11 77 77 SSW 3 6 30.18 1022 10 16 N/A
8:35 am 08:35 Sunny 63 17 52 11 68 68 N N/A 30.18 1022 10 16 N/A
8:55 am 08:55 Sunny 64 18 52 11 64 64 N N/A 30.21 1023 10 16 N/A
9:15 am 09:15 Sunny 68 20 54 12 60 60 SW 3 6 30.21 1023 10 16 N/A
9:35 am 09:35 Sunny 70 21 54 12 57 57 SSW 3 6 30.21 1023 10 16 N/A
9:55 am 09:55 Sunny 72 22 54 12 53 53 SSW 3 6 30.21 1023 10 16 N/A
10:15 am 10:15 Sunny 73 23 54 12 50 50 SSW 5 7 30.21 1023 10 16 N/A
10:35 am 10:35 Sunny 75 24 54 12 47 47 S 3 6 30.18 1022 10 16 N/A
10:55 am 10:55 Sunny 77 25 54 12 44 44 N N/A 30.18 1022 10 16 N/A
11:15 am 11:15 Sunny 79 26 54 12 42 42 SSE 3 6 30.18 1022 10 16 N/A
11:35 am 11:35 Sunny 79 26 52 11 39 39 N N/A 30.18 1022 10 16 N/A
11:55 am 11:55 Sunny 81 27 50 10 34 34 SSW 6 9 30.18 1022 10 16 N/A
12:15 pm 12:15 Sunny 82 28 50 10 32 32 W 3 6 30.18 1022 10 16 N/A
12:35 pm 12:35 Sunny 82 28 50 10 32 32 W 3 6 30.18 1022 10 16 N/A
12:55 pm 12:55 Sunny 84 29 50 10 31 31 SSE 7 11 30.15 1021 10 16 N/A
1:15 pm 13:15 Sunny 84 29 50 10 31 31 N N/A 30.15 1021 10 16 N/A
1:35 pm 13:35 Sunny 86 30 52 11 31 31 SSW 12 19 30.15 1021 10 16 N/A
1:55 pm 13:55 Sunny 84 29 48 9 29 29 SSE 8 13 30.15 1021 10 16 N/A
2:15 pm 14:15 Sunny 86 30 48 9 27 27 S 10 17 30.15 1021 10 16 N/A
2:35 pm 14:35 Sunny 86 30 48 9 27 27 S 6 9 30.15 1021 10 16 N/A
2:55 pm 14:55 Sunny 88 31 50 10 27 27 N N/A 30.12 1020 10 16 N/A
3:15 pm 15:15 Sunny 88 31 50 10 27 27 SW 8 13 30.12 1020 10 16 N/A
3:35 pm 15:35 Sunny 86 30 46 8 25 25 SSW 12 19 30.12 1020 10 16 N/A
3:55 pm 15:55 Sunny 88 31 46 8 24 24 S 9 15 30.09 1019 10 16 N/A
4:15 pm 16:15 Sunny 86 30 46 8 25 25 S 8 13 30.09 1019 10 16 N/A
4:35 pm 16:35 Sunny 88 31 50 10 27 27 SSW 7 11 30.09 1019 10 16 N/A
4:55 pm 16:55 Sunny 88 31 46 8 24 24 S 6 9 30.09 1019 10 16 N/A
5:15 pm 17:15 Sunny 88 31 46 8 24 24 SSW 10 17 30.09 1019 10 16 N/A
5:35 pm 17:35 Sunny 88 31 48 9 25 25 SSW 6 9 30.09 1019 10 16 N/A
5:55 pm 17:55 Sunny 88 31 46 8 24 24 S 8 13 30.09 1019 10 16 N/A
6:15 pm 18:15 Sunny 88 31 46 8 24 24 S 10 17 30.09 1019 10 16 N/A
6:35 pm 18:35 Sunny 84 29 46 8 27 27 S 6 9 30.09 1019 10 16 N/A
6:55 pm 18:55 Sunny 84 29 46 8 27 27 S 6 9 30.06 1018 10 16 N/A
7:15 pm 19:15 Sunny 82 28 46 8 28 28 S 6 9 30.06 1018 10 16 N/A
7:35 pm 19:35 Sunny 82 28 48 9 30 30 S 6 9 30.06 1018 10 16 N/A
7:55 pm 19:55 Clear 82 28 52 11 35 35 SSE 9 15 30.06 1018 10 16 N/A
8:15 pm 20:15 Clear 81 27 52 11 37 37 SSE 8 13 30.06 1018 10 16 N/A
8:35 pm 20:35 Clear 81 27 52 11 37 37 SSE 7 11 30.09 1019 10 16 N/A
8:55 pm 20:55 Clear 79 26 52 11 39 39 SSE 8 13 30.09 1019 10 16 N/A
9:15 pm 21:15 Clear 79 26 52 11 39 39 SSE 7 11 30.09 1019 10 16 N/A
9:35 pm 21:35 Clear 77 25 54 12 44 44 SSE 7 11 30.09 1019 10 16 N/A
9:55 pm 21:55 Clear 77 25 54 12 44 44 S 7 11 30.09 1019 10 16 N/A
10:15 pm 22:15 Clear 75 24 54 12 47 47 S 7 11 30.09 1019 10 16 N/A
10:35 pm 22:35 Clear 72 22 54 12 53 53 SSW 5 7 30.09 1019 10 16 N/A
10:55 pm 22:55 Mostly Cloudy 73 23 54 12 50 50 S 7 11 30.09 1019 10 16 N/A
11:15 pm 23:15 Cloudy 73 23 54 12 50 50 S 7 11 30.09 1019 10 16 N/A
11:35 pm 23:35 Cloudy 72 22 54 12 53 53 W 5 7 30.12 1020 10 16 N/A
11:55 pm 23:55 Cloudy 72 22 55 13 57 57 NNW 14 22 30.12 1020 10 16 N/A

Powered by AerisWeather